Content
SEND FEEDBACK

Daily
Averages
Monthly
Summary
United States of America

GREENSBURG, INDIANA


Home > North America > United States > Indiana
Elevation: 949 feet     Latitude: 39 20N     Longitude: 085 28W

WEATHER
 
SELECT A DAY
Number of Records: 172,729;   Date Range: 10/15/98 - 7/23/14
 
SHARE

PRINT THIS DATA

[ ← Previous Day ]
WEATHER ALMANAC - DECEMBER 16, 2013
[ Next Day → ]
[ °C ]   °F
Weather ElementAverageHighLow
Temperature27 °F30.9 °F (5:53 pm)19 °F (11:53 pm)
Dewpoint22.7 °F27 °F (6:53 pm)16 °F (11:53 pm)
Humidity83.6 %92 % (8:39 pm)78 % (9:53 am)
Barometer30.06 in30.13 in (12:53 am)29.99 in (8:39 pm)
Wind Speed4.8 mph10.4 mph (9:53 am)
Weather ElementAverage
Visibility2.7 mi
Wind DirectionESE (103.3 °)

Weather ElementTotal
Precipitation0.09 in
Heating Degree Days40.1 (Base 65)
Averaged from 42 records on December 16, 2013
WEATHER CONDITIONS BREAKOUT
WIND DIRECTION BREAKOUT
WEATHER BY HOUR - DECEMBER 16, 2013
[ °C ]   °F
Local TimeTemperatureDewpointHumidityBarometerVisibilityWind DirectionWind SpeedGust SpeedPrecipitationEventsConditions
12:21 AM26.1 °F21.0 °F81 %30.10 in3.0 miWSW (240°)3.5 mph0.00 inSnowLight Snow
12:50 AM26.6 °F21.2 °F80 %30.10 in2.0 miCalm0.00 inSnowLight Snow
12:53 AM26.1 °F21.0 °F81 %30.13 in2.0 miWest (270°)3.5 mph0.00 inSnowLight Snow
1:38 AM26.1 °F21.9 °F84 %30.09 in1.8 miWest (260°)3.5 mph0.01 inSnowLight Snow
1:53 AM26.1 °F21.9 °F84 %30.12 in1.5 miWSW (240°)3.5 mph0.01 inSnowLight Snow
2:53 AM26.1 °F21.9 °F84 %30.12 in1.5 miCalm0.01 inSnowLight Snow
3:53 AM26.1 °F21.9 °F84 %30.12 in1.2 miNE (50°)3.5 mph0.01 inSnowLight Snow
4:53 AM26.1 °F21.9 °F84 %30.09 in1.5 miENE (70°)3.5 mph0.02 inSnowLight Snow
5:30 AM25.0 °F21.9 °F88 %30.07 in2.0 miENE (60°)3.5 mph0.00 inSnowLight Snow
5:53 AM25.0 °F21.0 °F85 %30.10 in3.0 miNE (50°)4.6 mph0.00 inSnowLight Snow
6:49 AM24.8 °F19.4 °F80 %30.07 in2.5 miNE (50°)6.9 mph0.01 inSnowLight Snow
6:53 AM24.1 °F19.9 °F84 %30.11 in2.5 miNE (40°)6.9 mph0.01 inSnowLight Snow
7:02 AM24.1 °F19.9 °F84 %30.08 in3.0 miNE (50°)8.1 mph0.00 inSnowLight Snow
7:53 AM24.1 °F19.0 °F81 %30.12 in6.0 miNE (50°)9.2 mph0.00 inHaze
8:53 AM24.1 °F19.0 °F81 %30.11 in4.0 miENE (70°)9.2 mph0.01 inHaze
9:53 AM25.0 °F19.0 °F78 %30.12 in6.0 miENE (70°)10.4 mphHaze
10:53 AM26.1 °F19.9 °F78 %30.12 in6.0 miEast (80°)9.2 mphHaze
11:53 AM28.0 °F23.0 °F81 %30.11 in4.0 miNE (50°)5.8 mphHaze
12:53 PM28.9 °F23.0 °F78 %30.07 in4.0 miNE (50°)6.9 mphHaze
1:53 PM30.0 °F24.1 °F79 %30.04 in3.0 miEast (80°)4.6 mphHaze
2:53 PM28.9 °F24.1 °F82 %30.05 in3.0 miNNE (30°)9.2 mphHaze
3:00 PM28.9 °F24.1 °F82 %30.02 in2.5 miNE (40°)8.1 mphHaze
3:10 PM28.9 °F24.1 °F82 %30.02 in3.0 miNE (50°)6.9 mphHaze
3:22 PM28.9 °F24.1 °F82 %30.02 in2.5 miNE (50°)8.1 mphHaze
3:53 PM28.9 °F24.1 °F82 %30.04 in2.5 miEast (80°)6.9 mphHaze
4:04 PM28.9 °F24.1 °F82 %30.02 in3.0 miEast (90°)6.9 mphHaze
4:53 PM30.0 °F25.0 °F82 %30.06 in4.0 miESE (120°)3.5 mphHaze
5:07 PM30.0 °F25.0 °F82 %30.03 in4.0 miCalmHaze
5:53 PM30.9 °F26.1 °F82 %30.04 in5.0 miEast (100°)4.6 mphHaze
6:53 PM30.9 °F27.0 °F85 %30.05 in5.0 miCalmOvercast
7:53 PM28.9 °F25.0 °F85 %30.04 in4.0 miCalmOvercast
8:06 PM28.9 °F25.0 °F85 %30.01 in2.0 miCalmMostly Cloudy
8:15 PM28.0 °F25.0 °F88 %30.00 in1.8 miCalmScattered Clouds
8:39 PM27.0 °F25.0 °F92 %29.99 in2.5 miSouth (170°)4.6 mphScattered Clouds
8:53 PM28.0 °F24.1 °F85 %30.02 in2.5 miSSW (210°)4.6 mphScattered Clouds
9:17 PM27.0 °F24.1 °F89 %29.99 in1.8 miSW (230°)3.5 mphClear
9:44 PM28.0 °F25.0 °F88 %29.99 in2.5 miSSW (200°)5.8 mphScattered Clouds
9:53 PM28.0 °F25.0 °F88 %30.02 in1.8 miSouth (190°)5.8 mphMostly Cloudy
10:17 PM27.0 °F24.1 °F89 %29.99 in0.5 miSW (220°)3.5 mphFogLight Freezing Fog
10:19 PM26.1 °F23.0 °F88 %29.99 in0.2 miSW (220°)3.5 mphFogLight Freezing Fog
10:53 PM25.0 °F21.0 °F85 %30.02 in0.2 miSSW (200°)4.6 mphFogLight Freezing Fog
11:53 PM19.0 °F16.0 °F88 %30.03 in0.2 miNW (310°)3.5 mphFogLight Freezing Fog
Hourly data recorded from KGEZ, located miles away from Greensburg, Indiana







STORIES FROM OUR PARTNERS